User: anonymous   Login
Location: Unspecified
(0.0000°N, 0.0000°E)
Time: 04:29:43
(UTC+00:00)
Language:

XIAOXIANG 2 - Orbit

View from above orbital plane
View from above orbital plane
View from above satellite
View from above satellite

Ground track
Ground track

The orbit data is extracted from the following two-line orbital elements,

1 43155U 18008A   21215.50275742  .00001420  00000-0  84796-4 0  9993
2 43155  97.3995 279.0531 0017789 160.4964 314.5209 15.12569365195182
Epoch (UTC): 03 August 2021 12:03:58
Eccentricity: 0.0017789
inclination: 97.3995°
perigee height: 516 km
apogee height: 540 km
right ascension of ascending node: 279.0531°
argument of perigee: 160.4964°
revolutions per day: 15.12569365
mean anomaly at epoch: 314.5209°
orbit number at epoch: 19518

The dashed part of the orbit path shows where the satellite is in the earth's shadow,  

DLR